{"data":{"norad_id":61003,"epoch":"2026-05-25T04:38:25.262016Z","epoch_age_seconds":68751,"freshness":"FRESH","line1":"1 61003U 24158P   26145.19334794  .00000402  00000+0  25714-4 0  9996","line2":"2 61003  53.1603  70.2255 0001185  79.1102 281.0032 15.30196110 97364","mean_motion":15.3019611,"eccentricity":0.0001185,"inclination_deg":53.1603,"raan_deg":70.2255,"arg_perigee_deg":79.1102,"mean_anomaly_deg":281.0032,"bstar":2.5714e-5,"rev_number":9736,"period_min":94.105584937084,"perigee_km":474.41456068616,"apogee_km":476.03880787934,"semimajor_km":6853.3636842828,"source":"CELESTRAK","updated_at":"2026-05-25T13:38:19.349298Z"}}